{"data":{"norad_id":66785,"epoch":"2026-09-18T10:40:03.281088Z","epoch_age_seconds":192700,"freshness":"STALE","line1":"1 66785U 25276DZ  26261.44448242  .00003758  00000+0  29863-3 0  9996","line2":"2 66785  97.5031 329.3136 0005996 127.2229 232.9544 15.01017346 44139","mean_motion":15.01017346,"eccentricity":0.0005996,"inclination_deg":97.5031,"raan_deg":329.3136,"arg_perigee_deg":127.2229,"mean_anomaly_deg":232.9544,"bstar":0.00029863,"rev_number":4413,"period_min":95.934933985766,"perigee_km":559.59553616993,"apogee_km":567.92025652963,"semimajor_km":6941.8948963498,"source":"CELESTRAK","updated_at":"2026-09-20T09:00:34.880622Z"}}